Tracking 26492 objects as of 8-Dec-2022
HD Live streaming from Space Station
objects crossing your sky now

ONEWEB-0020

Track ONEWEB-0020 now!
10-day predictions
ONEWEB-0020 is classified as:


NORAD ID: 45133
Int'l Code: 2019-071K
Perigee: 1,227.5 km
Apogee: 1,230.3 km
Inclination: 87.9 °
Period: 109.9 minutes
Semi major axis: 7599 km
RCS: Unknown
Launch date: November 2, 2019
Source: United States (US)
Launch site: WALLOPS ISLAND (WLPIS)
aabbcc
Your satellite tracking list
Your tracking list is empty




NASA's NSSDC Master Catalog

Two Line Element Set (TLE):
1 45133U 20008C   22341.58284580 -.00000428  00000-0 -12623-2 0  9990
2 45133  87.8786 292.1573 0001845  68.3735 291.7589 13.10373818139718
Source of the keplerian elements: AFSPC